Location: Unspecified
(42.2730°N, 83.7130°W)
Time: 14:15:58
(UTC+00:00)

Cosmos 1538 Rocket - Pass Details

Date: 14 December 2025
Orbit: 747 x 788 km, 74.0° (Epoch: 17 January)

Event Time Altitude Azimuth Distance (km) Brightness Sun altitude
Rises 22:44:54 0° 345° (NNW) 3,257 7.2 -7.7°
Reaches altitude 10° 22:47:23 10° 352° (N) 2,332 6.4 -8.1°
Maximum altitude 22:52:29 45° 65° (ENE) 1,054 4.3 -8.9°
Drops below altitude 10° 22:57:34 10° 138° (SE) 2,338 6.3 -9.8°
Sets 23:00:03 0° 144° (SE) 3,266 7.1 -10.2°
